Main page
METAR-TAF:

METAR-TAF

Airports :

Placerville Airport

Placerville, California, United States

latitude: 38-43-27N, longitude: 120-45-12W, elevation: 2585 ft

Current weather observation

The report was made 44 minutes ago, at 07:55 UTC
Wind 10 mph from the East/Northeast
Temperature 37°F
Humidity 60%
Pressure 30.24 in. Hg
Visibility: 10 miles

METAR: KPVF 160755Z AUTO 06009KT 10SM 03/M04 A3024 RMK AO1

Time: 00:39 (08:39 UTC)


TAF: missing

Weather observations and forecasts of more than 4000 airports (METAR and TAF reports).

The available stations are represented by yellow and red dots on the map.

Hover mouse over dot to see the name of the station.

Then click to see weather observations and forecasts.

To change the map : click on the green buttons with a black cross to zoom in, on the green button with a dash to zoom out, or on the green arrows for adjacent maps.


METAR-TAF: